| time (UTC) | temp F | wind direction | speed MPH | gust MPH | rain 1hr in | rain 24hr in | rain mn in | humidity % | barometer mb |
| 20260904124603 | 58 | 49 | 2.0 | 5.0 | 0.00 | 0.50 | 0.43 | 89 | 997.3 |
| 20260904123059 | 57 | 28 | 0.0 | 0.0 | 0.00 | 0.50 | 0.43 | 90 | 997.4 |
| 20260904121554 | 57 | 61 | 0.0 | 4.0 | 0.00 | 0.50 | 0.43 | 90 | 997.5 |
| 20260904120051 | 57 | 66 | 0.0 | 3.0 | 0.00 | 0.50 | 0.43 | 91 | 997.6 |
| 20260904114550 | 57 | 33 | 0.0 | 0.0 | 0.00 | 0.50 | 0.43 | 90 | 997.6 |
| 20260904113049 | 58 | 34 | 0.0 | 3.0 | 0.00 | 0.50 | 0.43 | 88 | 997.6 |
| 20260904111548 | 58 | 35 | 0.0 | 3.0 | 0.00 | 0.50 | 0.43 | 88 | 997.7 |
| 20260904093019 | 55 | 45 | 0.0 | 1.0 | 0.00 | 0.50 | 0.43 | 95 | 998.3 |
| 20260904091515 | 55 | 29 | 0.0 | 2.0 | 0.00 | 0.50 | 0.43 | 95 | 998.5 |
| 20260904090030 | 55 | 355 | 0.0 | 0.0 | 0.00 | 0.50 | 0.43 | 95 | 998.6 |
| 20260904084514 | 55 | 355 | 0.0 | 0.0 | 0.00 | 0.50 | 0.43 | 96 | 998.5 |
| 20260904083014 | 55 | 1 | 0.0 | 0.0 | 0.00 | 0.50 | 0.43 | 96 | 998.5 |
| 20260904081518 | 55 | 2 | 0.0 | 0.0 | 0.00 | 0.50 | 0.43 | 96 | 998.5 |
| 20260904080012 | 54 | 331 | 0.0 | 0.0 | 0.00 | 0.50 | 0.43 | 96 | 998.5 |
| 20260904074513 | 54 | 331 | 0.0 | 0.0 | 0.00 | 0.50 | 0.43 | 96 | 998.5 |
| 20260904073011 | 54 | 328 | 0.0 | 0.0 | 0.00 | 0.50 | 0.43 | 97 | 998.5 |
| 20260904071509 | 54 | 354 | 0.0 | 1.0 | 0.01 | 0.50 | 0.43 | 96 | 998.5 |
| 20260904070009 | 53 | 332 | 0.0 | 0.0 | 0.02 | 0.50 | 0.43 | 97 | 998.6 |
| 20260904064508 | 53 | 333 | 0.0 | 0.0 | 0.02 | 0.50 | 0.43 | 96 | 998.8 |
| 20260904063011 | 53 | 334 | 0.0 | 0.0 | 0.02 | 0.50 | 0.43 | 96 | 998.8 |
| 20260904061509 | 53 | 332 | 0.0 | 0.0 | 0.01 | 0.49 | 0.42 | 96 | 998.9 |
| 20260904060005 | 53 | 331 | 0.0 | 0.0 | 0.00 | 0.48 | 0.41 | 97 | 999.1 |
| 20260904054509 | 53 | 330 | 0.0 | 0.0 | 0.00 | 0.48 | 0.41 | 97 | 999.0 |
| 20260904053009 | 53 | 331 | 0.0 | 0.0 | 0.00 | 0.48 | 0.41 | 96 | 999.0 |
| 20260904051506 | 52 | 329 | 0.0 | 0.0 | 0.01 | 0.48 | 0.41 | 96 | 999.0 |
| 20260904050001 | 52 | 331 | 0.0 | 0.0 | 0.01 | 0.48 | 0.41 | 96 | 999.1 |
| 20260904044600 | 52 | 331 | 0.0 | 0.0 | 0.01 | 0.48 | 0.41 | 96 | 999.1 |
| 20260904043103 | 52 | 331 | 0.0 | 0.0 | 0.01 | 0.48 | 0.41 | 96 | 999.2 |
| 20260904041559 | 52 | 327 | 0.0 | 0.0 | 0.00 | 0.47 | 0.40 | 96 | 999.2 |
| 20260904040107 | 52 | 326 | 0.0 | 0.0 | 0.02 | 0.47 | 0.40 | 96 | 999.4 |
| 20260904034557 | 53 | 328 | 0.0 | 0.0 | 0.03 | 0.47 | 0.40 | 96 | 999.5 |
| 20260904033054 | 53 | 328 | 0.0 | 0.0 | 0.05 | 0.47 | 0.40 | 96 | 999.6 |
| 20260904031557 | 53 | 329 | 0.0 | 2.0 | 0.10 | 0.47 | 0.40 | 96 | 999.7 |
| 20260904030054 | 53 | 339 | 0.0 | 0.0 | 0.17 | 0.45 | 0.38 | 96 | 999.8 |
| 20260904024551 | 53 | 10 | 0.0 | 1.0 | 0.26 | 0.44 | 0.37 | 96 | 999.9 |
| 20260904023049 | 53 | 318 | 0.0 | 3.0 | 0.26 | 0.41 | 0.34 | 96 | 1000.1 |
| 20260904021549 | 53 | 39 | 1.0 | 3.0 | 0.22 | 0.36 | 0.28 | 96 | 1000.0 |
| 20260904020049 | 53 | 51 | 3.0 | 5.0 | 0.15 | 0.27 | 0.20 | 96 | 1000.1 |
| 20260904014544 | 53 | 41 | 0.0 | 8.0 | 0.06 | 0.17 | 0.10 | 96 | 1000.3 |
| 20260904013046 | 53 | 326 | 0.0 | 3.0 | 0.07 | 0.15 | 0.08 | 96 | 1000.5 |
| 20260904011545 | 54 | 339 | 0.0 | 1.0 | 0.07 | 0.14 | 0.07 | 95 | 1000.6 |
| 20260904010040 | 54 | 37 | 1.0 | 3.0 | 0.05 | 0.12 | 0.05 | 95 | 1000.6 |
| 20260904004539 | 54 | 41 | 0.0 | 0.0 | 0.04 | 0.11 | 0.04 | 95 | 1000.7 |
| 20260904003036 | 54 | 274 | 0.0 | 0.0 | 0.00 | 0.07 | 0.00 | 95 | 1000.8 |
| 20260904001533 | 54 | 273 | 0.0 | 0.0 | 0.00 | 0.07 | 0.00 | 95 | 1001.1 |
| 20260904000032 | 54 | 269 | 0.0 | 0.0 | 0.00 | 0.07 | 0.00 | 95 | 1001.2 |
| 20260903234531 | 54 | 237 | 0.0 | 0.0 | 0.00 | 0.07 | 0.00 | 95 | 1001.3 |
| 20260903233029 | 54 | 233 | 0.0 | 0.0 | 0.00 | 0.07 | 0.00 | 94 | 1001.3 |
| 20260903231533 | 54 | 231 | 0.0 | 0.0 | 0.00 | 0.07 | 0.00 | 94 | 1001.5 |
| 20260903230036 | 54 | 224 | 0.0 | 0.0 | 0.00 | 0.07 | 0.00 | 94 | 1001.7 |
| 20260903224532 | 54 | 224 | 0.0 | 0.0 | 0.00 | 0.07 | 0.00 | 94 | 1001.9 |
| 20260903223027 | 54 | 224 | 0.0 | 0.0 | 0.00 | 0.07 | 0.00 | 93 | 1002.0 |
| 20260903221521 | 54 | 224 | 0.0 | 0.0 | 0.00 | 0.07 | 0.00 | 93 | 1002.0 |
| 20260903220026 | 54 | 224 | 0.0 | 0.0 | 0.00 | 0.07 | 0.00 | 93 | 1002.2 |
| 20260903214528 | 55 | 224 | 0.0 | 0.0 | 0.00 | 0.07 | 0.07 | 93 | 1002.2 |
| 20260903213016 | 55 | 224 | 0.0 | 0.0 | 0.00 | 0.07 | 0.07 | 93 | 1002.4 |
| 20260903211527 | 55 | 224 | 0.0 | 0.0 | 0.00 | 0.07 | 0.07 | 93 | 1002.4 |
| 20260903210019 | 55 | 224 | 0.0 | 0.0 | 0.00 | 0.07 | 0.07 | 93 | 1002.4 |
| 20260903204514 | 55 | 224 | 0.0 | 0.0 | 0.00 | 0.07 | 0.07 | 92 | 1002.4 |
| 20260903203012 | 56 | 224 | 0.0 | 0.0 | 0.00 | 0.07 | 0.07 | 91 | 1002.6 |
| 20260903201513 | 56 | 224 | 0.0 | 0.0 | 0.00 | 0.07 | 0.07 | 90 | 1002.9 |
| 20260903200009 | 56 | 224 | 0.0 | 0.0 | 0.00 | 0.07 | 0.07 | 90 | 1003.0 |
| 20260903194507 | 56 | 224 | 0.0 | 0.0 | 0.01 | 0.07 | 0.07 | 90 | 1003.2 |
| 20260903193005 | 57 | 224 | 0.0 | 0.0 | 0.01 | 0.07 | 0.07 | 90 | 1003.2 |
| 20260903191505 | 57 | 224 | 0.0 | 0.0 | 0.02 | 0.07 | 0.07 | 90 | 1003.3 |
| 20260903190004 | 58 | 224 | 0.0 | 0.0 | 0.02 | 0.07 | 0.07 | 88 | 1003.4 |
| 20260903184502 | 58 | 224 | 0.0 | 0.0 | 0.02 | 0.06 | 0.06 | 88 | 1003.4 |
| 20260903183100 | 58 | 224 | 0.0 | 0.0 | 0.03 | 0.06 | 0.06 | 88 | 1003.6 |
| 20260903181603 | 58 | 224 | 0.0 | 0.0 | 0.03 | 0.05 | 0.05 | 87 | 1003.7 |
| 20260903180059 | 59 | 224 | 0.0 | 0.0 | 0.04 | 0.05 | 0.05 | 86 | 1003.7 |
| 20260903174558 | 59 | 224 | 0.0 | 0.0 | 0.03 | 0.04 | 0.04 | 86 | 1003.7 |
| 20260903173057 | 59 | 224 | 0.0 | 0.0 | 0.03 | 0.03 | 0.03 | 86 | 1003.9 |
| 20260903171557 | 59 | 224 | 0.0 | 0.0 | 0.02 | 0.02 | 0.02 | 86 | 1003.7 |
| 20260903170104 | 59 | 224 | 0.0 | 0.0 | 0.01 | 0.01 | 0.01 | 85 | 1003.7 |
| 20260903164556 | 59 | 224 | 0.0 | 0.0 | 0.01 | 0.01 | 0.01 | 85 | 1003.7 |
| 20260903163054 | 60 | 210 | 0.0 | 0.0 | 0.00 | 0.00 | 0.00 | 84 | 1003.9 |
| 20260903161552 | 60 | 210 | 0.0 | 5.0 | 0.00 | 0.00 | 0.00 | 83 | 1004.0 |
| 20260903160051 | 60 | 233 | 3.0 | 10.0 | 0.00 | 0.00 | 0.00 | 80 | 1004.2 |
| 20260903154557 | 61 | 205 | 3.0 | 8.0 | 0.00 | 0.00 | 0.00 | 77 | 1004.4 |
| 20260903153103 | 62 | 210 | 3.0 | 8.0 | 0.00 | 0.00 | 0.00 | 75 | 1004.6 |
| 20260903151547 | 62 | 210 | 3.0 | 5.0 | 0.00 | 0.00 | 0.00 | 70 | 1004.6 |
| 20260903150100 | 62 | 205 | 3.0 | 8.0 | 0.00 | 0.00 | 0.00 | 67 | 1004.7 |
| 20260903144545 | 62 | 205 | 2.0 | 6.0 | 0.00 | 0.00 | 0.00 | 64 | 1004.7 |
| 20260903143055 | 62 | 210 | 4.0 | 8.0 | 0.00 | 0.00 | 0.00 | 62 | 1004.8 |
| 20260903141545 | 63 | 227 | 2.0 | 5.0 | 0.00 | 0.00 | 0.00 | 61 | 1004.8 |
| 20260903140042 | 62 | 200 | 3.0 | 8.0 | 0.00 | 0.00 | 0.00 | 59 | 1004.8 |
| 20260903134540 | 63 | 205 | 3.0 | 8.0 | 0.00 | 0.00 | 0.00 | 60 | 1005.0 |
| 20260903133040 | 64 | 214 | 4.0 | 9.0 | 0.00 | 0.00 | 0.00 | 56 | 1004.9 |
| 20260903131538 | 65 | 218 | 3.0 | 8.0 | 0.00 | 0.00 | 0.00 | 56 | 1005.1 |
| 20260903130038 | 65 | 196 | 1.0 | 11.0 | 0.00 | 0.00 | 0.00 | 59 | 1005.2 |